Tracking 35331 objects as of 14-Sep-2026
HD Live streaming from Space Station
objects crossing your sky now

AAC-HSI-SAT1

Track AAC-HSI-SAT1 now!
10-day predictions


NORAD ID: 56225
Int'l Code: 2023-054AZ
Launch date: April 15, 2023
Source: United Kingdom (UK)
Launch site: AIR FORCE WESTERN TEST RANGE (AFWTR)
Your satellite tracking list
Your tracking list is empty




NASA's NSSDC Master Catalog

Two Line Element Set (TLE):
1 56225U 23054AZ  26257.59854274  .00001476  00000-0  87542-4 0  9998
2 56225  97.3533 130.8379 0009985 165.8678 194.2834 15.12803807188884
Source of the keplerian elements: AFSPC